Погода в Анне

Россия / Воронежская область     51°29′21″N   40°25′27″E
темп.,
°C
ветер,
м/с
пор.,
м/с
влажн.,
%
обл.,
%
осадки,
мм/ч
давл.,
гПа
погр.,
м
16 апреля, пт
пт1600:00+10ююз227158 0.0 101520
03:00+9ююз2276100 0.0 101616
06:00+9ююз2283100 0.0 101636
09:00+13ююз346991 0.0 1017493
12:00+16ю345080 0.0 10171505
15:00+18ю453591 0.0 10172546
18:00+17ю24429 0.0 1017130
21:00+13юз2354100 0.0 101749
17 апреля, сб
сб1700:00+11зюз1261100 0.0 101823
03:00+9юз4682100 0.3 1018267
06:00+8юз2390100 1.7 1018276
09:00+9ююв3490100 4.1 1018368
12:00+11юз4571100 2.1 10181207
15:00+13юз364981 2.6 10181783
18:00+12зюз355485 0.1 1018220
21:00+8з357550 0.1 1020111
18 апреля, вс
вс1800:00+6юз35825 0.0 102096
03:00+5юз22885 0.0 102034
06:00+5ююз238965 0.0 102056
09:00+8ююз237899 0.0 1020406
12:00+10ю4559100 0.1 10191173
15:00+11ююз246094 0.1 10191155
18:00+10зюз347229 0.2 1019362
21:00+7зсз117911 0.2 102010
19 апреля, пн
пн1900:00+6вюв118196 0.0 102010
03:00+6вюв1178100 0.0 102010
06:00+6в117682 0.0 102010
09:00+11св225630 0.0 1019459
12:00+14всв234561 0.0 10181928
15:00+14св1244100 0.0 10181742
18:00+12всв687178 0.3 1017511
21:00+7в71283100 0.6 1019547
20 апреля, вт
вт2000:00+7в71388100 0.4 1017581
03:00+7в81387100 0.5 1017623
06:00+5в101888100 0.1 1014738
09:00+5в101992100 2.4 1012800
12:00+6в132493100 9.4 1008815
15:00+6вюв142590100 13.4 10071073
18:00+8юв122191100 0.5 1007950
21:00+9юв111992100 2.8 1008873